Location: Unspecified
(0.0000°N, 0.0000°E)
Time: 03:48:28
(UTC+01:00)

Altair - All Passes

Search period start: 04 March 2015 00:00
Search period end: 14 March 2015 00:00
Orbit: 1501 x 1683 km, 47.2° (Epoch: 03 March)

Date Brightness Start Highest point End Pass type
(mag) Time Alt. Az. Time Alt. Az. Time Alt. Az.
04 Mar - 00:00:22 10° N 00:06:49 20° NE 00:13:51 10° E night (unlit)
04 Mar - 02:01:58 10° NW 02:12:10 87° SW 02:22:09 10° SE visible
04 Mar - 04:11:04 10° W 04:17:27 17° SW 04:23:06 10° S visible
04 Mar - 12:48:33 10° SSW 12:56:52 40° SE 13:05:24 10° ENE daylight
04 Mar - 14:52:55 10° WSW 15:01:29 42° NW 15:10:06 10° NNE daylight
04 Mar - 23:35:49 10° N 23:41:31 17° NE 23:47:52 10° E night (unlit)
05 Mar - 01:36:48 10° NW 01:47:00 85° NE 01:57:00 10° SE night (unlit)
05 Mar - 03:45:06 10° W 03:52:10 20° SW 03:58:35 10° S visible
05 Mar - 12:23:41 10° SSW 12:31:42 35° SE 12:39:58 10° ENE daylight
05 Mar - 14:27:35 10° WSW 14:36:19 47° NW 14:45:09 10° NNE daylight
05 Mar - 23:11:25 10° NNE 23:16:11 15° NE 23:21:43 10° ENE night (unlit)
06 Mar - 01:11:39 10° NW 01:21:49 77° NE 01:31:50 10° SE night (unlit)
06 Mar - 03:19:14 10° W 03:26:54 23° SW 03:33:58 10° S visible
06 Mar - 11:58:51 10° S 12:06:32 31° SE 12:14:29 10° ENE daylight
06 Mar - 14:02:17 10° SW 14:11:10 53° NW 14:20:09 10° NNE daylight
06 Mar - 22:47:17 10° NNE 22:50:50 13° NE 22:55:16 10° ENE night (unlit)
07 Mar - 00:46:32 10° NNW 00:56:37 69° NE 01:06:36 10° SE night (unlit)
07 Mar - 02:53:30 10° W 03:01:38 26° SW 03:09:15 10° S visible
07 Mar - 11:34:04 10° S 11:41:20 27° SE 11:48:56 10° ENE daylight
07 Mar - 13:37:02 10° SW 13:46:02 60° NW 13:55:08 10° NNE daylight
07 Mar - 22:23:49 10° NNE 22:25:28 11° NE 22:28:07 10° NE visible
08 Mar - 00:21:27 10° NNW 00:31:26 62° NE 00:41:21 10° SE night (unlit)
08 Mar - 02:27:50 10° WNW 02:36:23 29° SW 02:44:29 10° S visible
08 Mar - 11:09:20 10° S 11:16:08 24° SE 11:23:19 10° E daylight
08 Mar - 13:11:49 10° SW 13:20:54 67° NW 13:30:05 10° NNE daylight
08 Mar - 15:24:08 10° NW 15:26:30 11° NW 15:28:02 10° NNW daylight
08 Mar - 23:56:25 10° NNW 00:06:14 56° NE 00:16:04 10° SE night (unlit)
09 Mar - 02:02:15 10° WNW 02:11:09 33° SW 02:19:39 10° SSE night (unlit)
09 Mar - 10:44:39 10° S 10:50:55 21° SE 10:57:36 10° E daylight
09 Mar - 12:46:37 10° SW 12:55:47 75° NW 13:05:02 10° NE daylight
09 Mar - 14:57:10 10° WNW 15:01:11 13° NW 15:04:30 10° NNW daylight
09 Mar - 23:31:24 10° NNW 23:41:02 50° NE 23:50:44 10° ESE night (unlit)
10 Mar - 01:36:43 10° WNW 01:45:55 37° SW 01:54:48 10° SSE night (unlit)
10 Mar - 10:20:04 10° S 10:25:41 18° SE 10:31:48 10° E daylight
10 Mar - 12:21:28 10° SW 12:30:40 83° NW 12:39:55 10° NE daylight
10 Mar - 14:30:51 10° WNW 14:35:54 15° NW 14:40:20 10° NNW daylight
10 Mar - 23:06:25 10° NNW 23:15:49 45° NE 23:25:21 10° ESE visible
11 Mar - 01:11:15 10° WNW 01:20:42 42° SW 01:29:53 10° SSE night (unlit)
11 Mar - 09:55:36 10° S 10:00:25 16° SE 10:05:51 10° E daylight
11 Mar - 11:56:20 10° SW 12:05:33 88° SE 12:14:48 10° NE daylight
11 Mar - 14:04:49 10° W 14:10:37 17° NW 14:15:55 10° N daylight
11 Mar - 22:41:28 10° NNW 22:50:36 40° NE 22:59:55 10° ESE visible
12 Mar - 00:45:50 10° WNW 00:55:29 47° SW 01:04:56 10° SSE night (unlit)
12 Mar - 09:31:19 10° SSE 09:35:09 14° SE 09:39:41 10° ESE daylight
12 Mar - 11:31:14 10° SW 11:40:26 79° SE 11:49:39 10° NE daylight
12 Mar - 13:38:58 10° W 13:45:23 20° NW 13:51:22 10° N daylight
12 Mar - 22:16:33 10° NNW 22:25:22 36° NE 22:34:27 10° ESE visible
13 Mar - 00:20:28 10° NW 00:30:17 53° SW 00:39:57 10° SSE night (unlit)
13 Mar - 09:07:25 10° SSE 09:09:51 12° SE 09:13:05 10° ESE daylight
13 Mar - 11:06:10 10° SSW 11:15:19 71° SE 11:24:28 10° NE daylight
13 Mar - 13:13:13 10° W 13:20:09 23° NW 13:26:43 10° N daylight
13 Mar - 21:51:41 10° N 22:00:07 32° NE 22:08:55 10° ESE visible
